Miscellaneous Local Product
Issued by NWS North Platte, NE

Home | Current Version | Previous Version | Text Only | Print | Product List | Glossary On
Versions: 1 2 3 4 5 6 7 8 9 10 11 12 13 14 15 16 17 18 19 20 21 22 23 24 25 26 27 28 29 30 31 32 33 34 35 36 37 38 39 40 41 42 43 44 45 46 47 48 49 50
000
AXUS43 KLBF 190310
MISLBF


WESTERN AND NORTH CENTRAL NEBRASKA HOURLY WEATHER ROUNDUP
NATIONAL WEATHER SERVICE NORTH PLATTE NE
900 PM CST THU JAN 18 2018

NOTE: "FAIR" INDICATES FEW OR NO CLOUDS BELOW 12,000 FEET WITH NO
SIGNIFICANT WEATHER AND/OR OBSTRUCTIONS TO VISIBILITY.

NOTE: STATIONS NOT REPORTING VARIABLES SUCH AS SKY/WEATHER OR
PRESSURE ARE PROVIDED BY RAWS AND APRS NETWORKS AND ARE NOT UNDER
NATIONAL WEATHER SERVICE QUALITY CONTROL.

...OBSERVATIONS IN AND NEAR THE EASTERN PANHANDLE OF NEBRASKA...

CITY           SKY/WX    TMP DP  RH WIND       PRES   REMARKS
PINE RIDGE     MOCLDY    38  30  73 W8        29.79F WCI  32
GORDON         FAIR      38  30  73 W5        29.80S WCI  34
CHADRON        CLOUDY    33  29  85 SW8       29.81S WCI  26
ALLIANCE       CLOUDY    34  29  82 W9        29.84F WCI  27
SIDNEY         CLOUDY    39  19  44 SW9       29.91F WCI  33
CRESCENT LAKE    N/A     38  28  68 SE3         N/A
$$

...OBSERVATIONS IN NORTHERN NEBRASKA AND FAR SOUTHERN SOUTH DAKOTA...

CITY           SKY/WX    TMP DP  RH WIND       PRES   REMARKS
WINNER         FAIR      43  31  62 SW12      29.75F
VALENTINE      CLOUDY    38  29  70 SW6       29.78F WCI  33
AINSWORTH      CLOUDY    39  32  75 SW9       29.80F WCI  33
O`NEILL        CLOUDY    33  30  87 SW6       29.81F WCI  28
THEDFORD       MOCLDY    38  31  77 CALM      29.84F
BROKEN BOW     CLOUDY    37  28  70 CALM      29.86F
ORD            CLOUDY    29  26  89 CALM      29.85S
ALBION         CLOUDY    33  28  84 CALM      29.85F
VALENTINE NWR    N/A     39  30  71 SW6         N/A  WCI  35
HALSEY           N/A     41  30  64 SW5         N/A
BUTTE            N/A     37  30  77 SW8         N/A  WCI  31
CHAMBERS         N/A     36  29  76 S3          N/A
EWING            N/A     33  29  86 SW3         N/A
$$

...OBSERVATIONS IN SOUTHWEST NEBRASKA AND FAR NORTHEAST COLORADO...

CITY           SKY/WX    TMP DP  RH WIND       PRES   REMARKS
WRAY           FAIR      37  19  48 W6        29.91F WCI  33
HOLYOKE        FAIR      37  25  60 W8        29.91S WCI  31
IMPERIAL       PTCLDY    42  24  49 SW7       29.89F
OGALLALA       PTCLDY    32  27  80 W5        29.89S WCI  27
NORTH PLATTE   PTCLDY    30  26  85 CALM      29.88F
MCCOOK         CLOUDY    35  25  66 W7        29.89F WCI  29
LEXINGTON      CLOUDY    32  27  83 N5        29.89F WCI  27
STAPLETON        N/A     35  29  78 CALM        N/A
GOTHENBURG       N/A     35  27  71 CALM        N/A
CALLAWAY         N/A     38  29  70 S6          N/A  WCI  33
$$

...OBSERVATIONS IN CENTRAL LINCOLN COUNTY AREA...

CITY           SKY/WX    TMP DP  RH WIND       PRES   REMARKS
N.P. AIRPORT   PTCLDY    30  26  85 CALM      29.88F
N.P. DOWNTOWN    N/A     30  27  88 CALM        N/A
N.P. SOUTHEAST   N/A     33  27  80 CALM        N/A
N.P. HILLCREST   N/A     42  30  63 CALM        N/A
$$

...SOME OBSERVATIONS FROM AROUND THE REGION...

CITY           SKY/WX    TMP DP  RH WIND       PRES   REMARKS
DENVER         MOCLDY    38  16  40 S8        29.95F WCI  32
BERTHOUD PASS  FAIR      27  14  59 N8        30.28F WCI  18
GRAND JUNCTION CLOUDY    30  19  63 CALM      30.17S
LARAMIE        CLOUDY    39  13  34 SW22      30.04S WCI  29
CHEYENNE       CLOUDY    50  16  25 W16       29.97S
CASPER         CLOUDY    45  20  36 SW32G46   29.88F
BISMARCK       CLOUDY    27  24  89 CALM      29.66S
RAPID CITY     CLOUDY    36  26  67 W3        29.72F
PIERRE         CLOUDY    30  26  85 S3        29.71F
SIOUX FALLS    CLOUDY    35  28  75 SW6       29.79S WCI  30
OMAHA          CLOUDY    25  20  81 SE9       29.93F WCI  15
GRAND ISLAND   CLOUDY    35  29  78 SW9       29.88F WCI  28
SCOTTSBLUFF    CLOUDY    41  31  67 NW6       29.87F
KANSAS CITY    CLOUDY    37  22  54 S16       30.03F WCI  28
HILL CITY      CLOUDY    45  14  28 SW13      29.92F
WICHITA        CLOUDY    37  21  52 S13       30.07F WCI  29
DODGE CITY     CLOUDY    34  13  41 S9        30.01S WCI  27
OKLAHOMA CITY  CLOUDY    34  15  46 S10       30.17R WCI  26
DALLAS         PTCLDY    36  16  44 S10       30.30S WCI  28
AMARILLO       CLOUDY    36  11  35 S13       30.07F WCI  27
$$




USA.gov is the U.S. government's official web portal to all federal, state and local government web resources and services.